DLH454 EDDM-KLAX

Flight info

Callsign DLH454
Flight time N/A
Altitude 22000
Route RIDAR6N RIDAR L173 GUPIN/N0491F340 N869 ETAGO DCT SUNEG DCT LIRSU DCT REMBA M624 BUB L608 DENUT L610 HEMEL T420 BUZAD L10 DTY DCT SAPCO UN57 TNT UQ4 WAL L10 PENIL M144 BAGSO DCT VENER/M085F360 NATC LOMSI/N0487F360 DCT YWK DCT MT/N0484F380 DCT SSM DCT KP87K DCT KP78G DCT KD66A DCT KD51U DCT KD42Q DCT JASSE Q90 DNERO ANJLL4
Aircraft A388/J-SADE2E3FGHIJ3J4J5M1RWXY/LB1D1

Departure

Time N/A
Airport Munich Airport (EDDM)

Arrival

Time 2026-04-24 20:30
Airport Los Angeles International Airport (KLAX)
Time Latitude Longitude Altitude Speed Heading
2026-04-24 18:54 38.04291 -107.27544 37927 ft 421 kts 249°
2026-04-24 18:55 38.00594 -107.37626 37913 ft 422 kts 248°
2026-04-24 18:56 37.98114 -107.44358 37922 ft 422 kts 249°
2026-04-24 18:56 37.95631 -107.51106 37946 ft 424 kts 249°
2026-04-24 18:57 37.93134 -107.57875 38001 ft 424 kts 248°
2026-04-24 18:57 37.90646 -107.64591 38029 ft 424 kts 248°
2026-04-24 18:58 37.88137 -107.71353 38054 ft 424 kts 248°
2026-04-24 18:58 37.85624 -107.78113 38074 ft 424 kts 248°
2026-04-24 18:59 37.83107 -107.84870 38082 ft 425 kts 248°
2026-04-24 18:59 37.80584 -107.91625 38074 ft 424 kts 248°
2026-04-24 19:00 37.78080 -107.98313 38061 ft 423 kts 248°
2026-04-24 19:00 37.75561 -108.05028 38020 ft 422 kts 248°
2026-04-24 19:01 37.73046 -108.11718 37992 ft 421 kts 248°
2026-04-24 19:01 37.70533 -108.18390 37941 ft 421 kts 248°
2026-04-24 19:02 37.68035 -108.25008 37930 ft 420 kts 248°
2026-04-24 19:02 37.65523 -108.31645 37914 ft 418 kts 248°
2026-04-24 19:03 37.63013 -108.38264 37907 ft 418 kts 248°
2026-04-24 19:03 37.60500 -108.44877 37909 ft 418 kts 248°
2026-04-24 19:04 37.57984 -108.51485 37921 ft 418 kts 248°
2026-04-24 19:04 37.55478 -108.58054 37940 ft 419 kts 248°
2026-04-24 19:05 37.52952 -108.64657 37949 ft 418 kts 248°
2026-04-24 19:05 37.50424 -108.71252 37971 ft 418 kts 248°
2026-04-24 19:06 37.47911 -108.77799 37941 ft 418 kts 248°
2026-04-24 19:06 37.45379 -108.84376 37953 ft 418 kts 248°
2026-04-24 19:07 37.42843 -108.90951 37939 ft 417 kts 248°
2026-04-24 19:07 37.40304 -108.97518 37917 ft 417 kts 248°
2026-04-24 19:08 37.37765 -109.04074 37892 ft 417 kts 248°
2026-04-24 19:08 37.35240 -109.10579 37874 ft 417 kts 248°
2026-04-24 19:09 37.32700 -109.17111 37877 ft 416 kts 248°
2026-04-24 19:09 37.30157 -109.23636 37866 ft 415 kts 248°
2026-04-24 19:10 37.27615 -109.30144 37866 ft 415 kts 248°
2026-04-24 19:10 37.25089 -109.36598 37861 ft 415 kts 248°
2026-04-24 19:11 37.22544 -109.43088 37851 ft 414 kts 248°
2026-04-24 19:11 37.19999 -109.49563 37851 ft 414 kts 247°
2026-04-24 19:12 37.17452 -109.56030 37844 ft 413 kts 247°
2026-04-24 19:12 37.14921 -109.62446 37844 ft 413 kts 247°
2026-04-24 19:13 37.12784 -109.67849 37838 ft 413 kts 247°
2026-04-24 19:13 37.09815 -109.75345 37843 ft 413 kts 247°
2026-04-24 19:14 37.07257 -109.81788 37836 ft 413 kts 247°
2026-04-24 19:14 37.04694 -109.88231 37833 ft 413 kts 247°
2026-04-24 19:15 37.02149 -109.94626 37833 ft 413 kts 247°
2026-04-24 19:15 36.99490 -110.01000 37829 ft 415 kts 244°
2026-04-24 19:16 36.94896 -110.10185 37829 ft 415 kts 242°
2026-04-24 19:16 36.91857 -110.16271 37832 ft 416 kts 242°
2026-04-24 19:17 36.88789 -110.22393 37842 ft 416 kts 242°
2026-04-24 19:17 36.85715 -110.28508 37844 ft 416 kts 242°
2026-04-24 19:18 36.82637 -110.34621 37845 ft 415 kts 242°
2026-04-24 19:18 36.79580 -110.40679 37850 ft 415 kts 242°
2026-04-24 19:19 36.76505 -110.46764 37841 ft 414 kts 242°
2026-04-24 19:19 36.73437 -110.52820 37851 ft 412 kts 242°
2026-04-24 19:20 36.70373 -110.58863 37844 ft 413 kts 242°
2026-04-24 19:20 36.67302 -110.64909 37846 ft 413 kts 242°
2026-04-24 19:21 36.64248 -110.70908 37851 ft 413 kts 242°
2026-04-24 19:21 36.61169 -110.76947 37846 ft 413 kts 242°
2026-04-24 19:22 36.58085 -110.82983 37832 ft 413 kts 242°
2026-04-24 19:22 36.54997 -110.89018 37850 ft 414 kts 242°
2026-04-24 19:23 36.51905 -110.95050 37848 ft 414 kts 242°
2026-04-24 19:23 36.48829 -111.01038 37851 ft 414 kts 242°
2026-04-24 19:24 36.45729 -111.07062 37855 ft 414 kts 242°
2026-04-24 19:24 36.42625 -111.13085 37852 ft 414 kts 242°
2026-04-24 19:25 36.39516 -111.19108 37847 ft 414 kts 242°
2026-04-24 19:25 36.36425 -111.25082 37851 ft 414 kts 242°
2026-04-24 19:26 36.33310 -111.31094 37847 ft 415 kts 242°
2026-04-24 19:26 36.30189 -111.37107 37841 ft 414 kts 242°
2026-04-24 19:27 36.27088 -111.43070 37830 ft 414 kts 242°
2026-04-24 19:27 36.23965 -111.49067 37827 ft 414 kts 242°
2026-04-24 19:28 36.20837 -111.55060 37829 ft 414 kts 242°
2026-04-24 19:28 36.17708 -111.61045 37837 ft 414 kts 242°
2026-04-24 19:29 36.13032 -111.69970 37860 ft 413 kts 242°
2026-04-24 19:30 36.09903 -111.75929 37865 ft 413 kts 242°
2026-04-24 19:30 36.06988 -111.82003 37913 ft 409 kts 247°
2026-04-24 19:31 36.04792 -111.88459 37962 ft 408 kts 251°
2026-04-24 19:31 36.02723 -111.94984 38000 ft 406 kts 251°
2026-04-24 19:32 36.00661 -112.01411 37995 ft 404 kts 251°
2026-04-24 19:32 35.98589 -112.07882 38031 ft 406 kts 251°
2026-04-24 19:33 35.96506 -112.14372 38041 ft 407 kts 251°
2026-04-24 19:33 35.94410 -112.20878 38049 ft 408 kts 251°
2026-04-24 19:34 35.92321 -112.27347 38046 ft 409 kts 251°
2026-04-24 19:34 35.90214 -112.33859 38024 ft 409 kts 251°
2026-04-24 19:35 35.88101 -112.40375 37998 ft 409 kts 251°
2026-04-24 19:35 35.85985 -112.46887 37963 ft 409 kts 251°
2026-04-24 19:36 35.83865 -112.53396 37925 ft 409 kts 251°
2026-04-24 19:36 35.81755 -112.59858 37915 ft 409 kts 251°
2026-04-24 19:37 35.79629 -112.66359 37913 ft 409 kts 251°
2026-04-24 19:37 35.77500 -112.72852 37908 ft 409 kts 251°
2026-04-24 19:38 35.75368 -112.79342 37901 ft 409 kts 251°
2026-04-24 19:38 35.73234 -112.85822 37897 ft 409 kts 251°
2026-04-24 19:39 35.71111 -112.92258 37899 ft 408 kts 251°
2026-04-24 19:39 35.68972 -112.98725 37887 ft 408 kts 251°
2026-04-24 19:40 35.66829 -113.05193 37893 ft 408 kts 251°
2026-04-24 19:40 35.64683 -113.11650 37889 ft 407 kts 251°
2026-04-24 19:41 35.62556 -113.18042 37877 ft 407 kts 250°
2026-04-24 19:41 35.60411 -113.24478 37874 ft 407 kts 250°
2026-04-24 19:42 35.58261 -113.30905 37866 ft 407 kts 250°
2026-04-24 19:42 35.56111 -113.37324 37859 ft 406 kts 250°
2026-04-24 19:43 35.53973 -113.43695 37852 ft 406 kts 250°
2026-04-24 19:43 35.51818 -113.50101 37844 ft 406 kts 250°
2026-04-24 19:44 35.49661 -113.56500 37841 ft 406 kts 250°
2026-04-24 19:44 35.47501 -113.62894 37847 ft 405 kts 250°
2026-04-24 19:45 35.45340 -113.69275 37874 ft 405 kts 250°
2026-04-24 19:45 35.43193 -113.75607 37897 ft 405 kts 250°
2026-04-24 19:46 35.41026 -113.81982 37920 ft 405 kts 250°
2026-04-24 19:46 35.38854 -113.88356 37941 ft 405 kts 250°
2026-04-24 19:47 35.36679 -113.94730 37962 ft 405 kts 250°
2026-04-24 19:47 35.34516 -114.01053 37964 ft 405 kts 250°
2026-04-24 19:48 35.32333 -114.07420 37951 ft 405 kts 250°
2026-04-24 19:48 35.29052 -114.16969 37922 ft 406 kts 250°
2026-04-24 19:49 35.24679 -114.29646 37842 ft 406 kts 250°
2026-04-24 19:50 35.20281 -114.42348 37844 ft 406 kts 250°
2026-04-24 19:51 35.16986 -114.51829 37856 ft 406 kts 250°
2026-04-24 19:52 35.13663 -114.61361 37862 ft 406 kts 249°
2026-04-24 19:52 35.11455 -114.67709 37857 ft 406 kts 249°
2026-04-24 19:53 35.09250 -114.74056 37852 ft 406 kts 250°
2026-04-24 19:54 35.05954 -114.83517 37845 ft 406 kts 249°
2026-04-24 19:54 35.03733 -114.89846 37844 ft 406 kts 248°
2026-04-24 19:55 35.01593 -114.94951 37839 ft 407 kts 245°
2026-04-24 19:55 34.98515 -115.02041 37851 ft 407 kts 245°
2026-04-24 19:56 34.95869 -115.08146 37857 ft 407 kts 245°
2026-04-24 19:56 34.93220 -115.14245 37863 ft 407 kts 245°
2026-04-24 19:57 34.90565 -115.20344 37864 ft 408 kts 245°
2026-04-24 19:57 34.87906 -115.26442 37874 ft 408 kts 245°
2026-04-24 19:58 34.85261 -115.32497 37879 ft 408 kts 245°
2026-04-24 19:58 34.82592 -115.38595 37882 ft 408 kts 245°
2026-04-24 19:59 34.79918 -115.44694 37883 ft 408 kts 245°
2026-04-24 19:59 34.77524 -115.50926 37882 ft 407 kts 249°
2026-04-24 20:00 34.75223 -115.57212 37881 ft 407 kts 249°
2026-04-24 20:00 34.72929 -115.63441 37884 ft 407 kts 249°
2026-04-24 20:01 34.70610 -115.69727 37888 ft 408 kts 249°
2026-04-24 20:01 34.68284 -115.76016 37897 ft 408 kts 249°
2026-04-24 20:02 34.66348 -115.81243 37894 ft 408 kts 249°
2026-04-24 20:02 34.63632 -115.88560 37891 ft 409 kts 249°
2026-04-24 20:03 34.61301 -115.94865 37708 ft 406 kts 249°
2026-04-24 20:03 34.60158 -115.97969 37441 ft 401 kts 249°
2026-04-24 20:03 34.59023 -116.01053 37174 ft 400 kts 249°
2026-04-24 20:03 34.57888 -116.04133 36921 ft 401 kts 249°
2026-04-24 20:04 34.56747 -116.07223 36658 ft 401 kts 249°
2026-04-24 20:04 34.55608 -116.10305 36396 ft 401 kts 248°
2026-04-24 20:04 34.54481 -116.13350 36149 ft 400 kts 248°
2026-04-24 20:04 34.53344 -116.16418 35769 ft 398 kts 248°
2026-04-24 20:05 34.52207 -116.19483 34973 ft 400 kts 248°
2026-04-24 20:05 34.51059 -116.22576 34115 ft 403 kts 248°
2026-04-24 20:05 34.49912 -116.25660 33540 ft 397 kts 247°
2026-04-24 20:05 34.48788 -116.28677 33003 ft 390 kts 247°
2026-04-24 20:06 34.47677 -116.31653 32437 ft 385 kts 247°
2026-04-24 20:06 34.46581 -116.34592 31871 ft 380 kts 248°
2026-04-24 20:06 34.45496 -116.37499 31316 ft 376 kts 248°
2026-04-24 20:06 34.44424 -116.40370 30764 ft 373 kts 248°
2026-04-24 20:07 34.43719 -116.42257 30404 ft 370 kts 248°
2026-04-24 20:07 34.42317 -116.46007 29634 ft 367 kts 248°
2026-04-24 20:07 34.41265 -116.48807 29100 ft 363 kts 247°
2026-04-24 20:07 34.40168 -116.51539 28553 ft 359 kts 246°
2026-04-24 20:08 34.39047 -116.54216 28029 ft 354 kts 246°
2026-04-24 20:08 34.37938 -116.56857 27503 ft 350 kts 246°
2026-04-24 20:08 34.36846 -116.59472 26985 ft 346 kts 246°
2026-04-24 20:08 34.35774 -116.62057 26479 ft 342 kts 246°
2026-04-24 20:09 34.34714 -116.64620 25967 ft 339 kts 246°
2026-04-24 20:09 34.33669 -116.67148 25653 ft 334 kts 246°
2026-04-24 20:09 34.32628 -116.69691 25401 ft 340 kts 247°
2026-04-24 20:09 34.31606 -116.72238 24953 ft 342 kts 248°
2026-04-24 20:10 34.30574 -116.74819 24479 ft 340 kts 248°
2026-04-24 20:10 34.29548 -116.77384 24001 ft 337 kts 248°
2026-04-24 20:10 34.28531 -116.79917 23544 ft 333 kts 248°
2026-04-24 20:10 34.27523 -116.82419 23033 ft 329 kts 248°
2026-04-24 20:11 34.26529 -116.84884 22586 ft 324 kts 248°
2026-04-24 20:11 34.25550 -116.87311 22141 ft 319 kts 248°
2026-04-24 20:11 34.24586 -116.89698 21712 ft 314 kts 247°
2026-04-24 20:11 34.23632 -116.92061 21281 ft 311 kts 247°
2026-04-24 20:12 34.22700 -116.94368 20863 ft 308 kts 247°
2026-04-24 20:12 34.21766 -116.96678 20450 ft 304 kts 246°
2026-04-24 20:12 34.20917 -116.99001 20041 ft 301 kts 251°
2026-04-24 20:12 34.20270 -117.01400 19617 ft 301 kts 253°
2026-04-24 20:13 34.19626 -117.03817 19127 ft 302 kts 252°
2026-04-24 20:13 34.18968 -117.06256 18792 ft 307 kts 252°
2026-04-24 20:13 34.18299 -117.08722 18371 ft 309 kts 252°
2026-04-24 20:13 34.17640 -117.11148 17910 ft 308 kts 252°
2026-04-24 20:14 34.16976 -117.13589 17518 ft 304 kts 252°
2026-04-24 20:14 34.16316 -117.16019 17183 ft 309 kts 252°
2026-04-24 20:14 34.15625 -117.18543 16975 ft 320 kts 252°
2026-04-24 20:14 34.14931 -117.21062 16818 ft 310 kts 252°
2026-04-24 20:15 34.14265 -117.23476 16684 ft 296 kts 252°
2026-04-24 20:15 34.13631 -117.25778 16438 ft 284 kts 252°
2026-04-24 20:15 34.13012 -117.28024 16160 ft 282 kts 252°
2026-04-24 20:15 34.12393 -117.30272 15884 ft 283 kts 252°
2026-04-24 20:16 34.11772 -117.32525 15528 ft 284 kts 252°
2026-04-24 20:16 34.11152 -117.34772 15046 ft 287 kts 252°
2026-04-24 20:16 34.10526 -117.37035 14751 ft 282 kts 252°
2026-04-24 20:16 34.09929 -117.39277 14396 ft 280 kts 253°
2026-04-24 20:17 34.09372 -117.41529 13998 ft 279 kts 253°
2026-04-24 20:17 34.08272 -117.46017 13185 ft 279 kts 253°
2026-04-24 20:17 34.07717 -117.48254 12776 ft 278 kts 253°
2026-04-24 20:18 34.07347 -117.49732 12489 ft 278 kts 253°
2026-04-24 20:18 34.06670 -117.52735 11924 ft 278 kts 256°
2026-04-24 20:18 34.06223 -117.55007 11506 ft 278 kts 256°
2026-04-24 20:18 34.05780 -117.57245 11092 ft 278 kts 256°
2026-04-24 20:19 34.05328 -117.59513 10684 ft 278 kts 256°
2026-04-24 20:19 34.04871 -117.61785 10279 ft 278 kts 256°
2026-04-24 20:19 34.04467 -117.64056 9863 ft 277 kts 261°
2026-04-24 20:19 34.04144 -117.66349 9441 ft 277 kts 259°
2026-04-24 20:20 34.03773 -117.68626 9007 ft 276 kts 259°
2026-04-24 20:20 34.03422 -117.70897 8580 ft 276 kts 260°
2026-04-24 20:20 34.03099 -117.73173 8161 ft 275 kts 261°
2026-04-24 20:20 34.02796 -117.75447 7733 ft 274 kts 261°
2026-04-24 20:21 34.02501 -117.77720 7324 ft 274 kts 261°
2026-04-24 20:21 34.02208 -117.79979 6881 ft 272 kts 261°
2026-04-24 20:21 34.01921 -117.82210 6558 ft 264 kts 261°
2026-04-24 20:21 34.01653 -117.84304 6416 ft 251 kts 261°
2026-04-24 20:22 34.01390 -117.86363 6144 ft 246 kts 262°
2026-04-24 20:22 34.01129 -117.88400 5956 ft 243 kts 261°
2026-04-24 20:22 34.00871 -117.90407 5560 ft 243 kts 261°
2026-04-24 20:22 34.00609 -117.92430 5274 ft 246 kts 261°
2026-04-24 20:23 34.00346 -117.94457 4970 ft 246 kts 261°
2026-04-24 20:23 34.00083 -117.96471 4712 ft 240 kts 261°
2026-04-24 20:23 33.99831 -117.98409 4615 ft 228 kts 261°
2026-04-24 20:23 33.99596 -118.00236 4462 ft 221 kts 261°
2026-04-24 20:24 33.99437 -118.01465 4297 ft 220 kts 261°
2026-04-24 20:24 33.99127 -118.03871 4000 ft 219 kts 260°
2026-04-24 20:24 33.98831 -118.05721 3992 ft 234 kts 258°
2026-04-24 20:24 33.98556 -118.07689 3991 ft 240 kts 261°
2026-04-24 20:25 33.98346 -118.09687 3992 ft 241 kts 262°
2026-04-24 20:25 33.98137 -118.11693 3994 ft 241 kts 262°
2026-04-24 20:25 33.97931 -118.13697 4002 ft 242 kts 262°
2026-04-24 20:25 33.97729 -118.15673 4008 ft 231 kts 262°
2026-04-24 20:26 33.97538 -118.17537 3842 ft 224 kts 262°
2026-04-24 20:26 33.97352 -118.19343 3563 ft 214 kts 262°
2026-04-24 20:26 33.97168 -118.21136 3273 ft 217 kts 262°
2026-04-24 20:26 33.96986 -118.22915 2960 ft 208 kts 261°
2026-04-24 20:27 33.96817 -118.24572 2689 ft 191 kts 261°
2026-04-24 20:27 33.96655 -118.26132 2442 ft 186 kts 260°
2026-04-24 20:27 33.96497 -118.27674 2191 ft 186 kts 261°
2026-04-24 20:27 33.96339 -118.29214 1948 ft 185 kts 259°
2026-04-24 20:28 33.96192 -118.30666 1706 ft 161 kts 260°
2026-04-24 20:28 33.96062 -118.31930 1495 ft 145 kts 258°
2026-04-24 20:28 33.95942 -118.33094 1312 ft 139 kts 258°
2026-04-24 20:28 33.95824 -118.34264 1121 ft 143 kts 258°
2026-04-24 20:29 33.95744 -118.35062 1000 ft 140 kts 258°
2026-04-24 20:29 33.95576 -118.36601 741 ft 142 kts 260°
2026-04-24 20:29 33.95464 -118.37783 547 ft 142 kts 262°
2026-04-24 20:29 33.95346 -118.38968 366 ft 144 kts 261°
2026-04-24 20:30 33.95217 -118.40162 144 ft 143 kts 262°
2026-04-24 20:30 33.95106 -118.41222 110 ft 106 kts 262°
2026-04-24 20:30 33.95031 -118.41956 112 ft 74 kts 262°
2026-04-24 20:30 33.94987 -118.42267 111 ft 24 kts 247°
2026-04-24 20:31 33.94890 -118.42435 109 ft 23 kts 219°
2026-04-24 20:31 33.94856 -118.42468 108 ft 3 kts 216°
2026-04-24 20:31 33.94836 -118.42482 110 ft 3 kts 198°
2026-04-24 20:31 33.94812 -118.42487 112 ft 4 kts 186°
2026-04-24 20:32 33.94749 -118.42487 111 ft 10 kts 174°
2026-04-24 20:32 33.94676 -118.42462 107 ft 13 kts 130°
2026-04-24 20:32 33.94667 -118.42369 105 ft 13 kts 81°
2026-04-24 20:32 33.94680 -118.42258 104 ft 12 kts 82°
2026-04-24 20:33 33.94692 -118.42149 104 ft 9 kts 83°
2026-04-24 20:33 33.94701 -118.42058 105 ft 13 kts 83°
2026-04-24 20:33 33.94712 -118.41936 103 ft 16 kts 84°
2026-04-24 20:33 33.94724 -118.41816 104 ft 14 kts 83°
2026-04-24 20:34 33.94737 -118.41685 103 ft 17 kts 83°
2026-04-24 20:34 33.94752 -118.41555 104 ft 6 kts 83°
2026-04-24 20:34 33.94759 -118.41486 105 ft 11 kts 83°
2026-04-24 20:34 33.94777 -118.41386 105 ft 14 kts 75°
2026-04-24 20:35 33.94775 -118.41307 105 ft 10 kts 129°
2026-04-24 20:35 33.94710 -118.41287 103 ft 10 kts 173°
2026-04-24 20:35 33.94645 -118.41277 100 ft 12 kts 173°
2026-04-24 20:35 33.94555 -118.41263 101 ft 8 kts 173°
2026-04-24 20:36 33.94491 -118.41254 101 ft 6 kts 173°
2026-04-24 20:36 33.94447 -118.41248 100 ft 9 kts 173°
2026-04-24 20:36 33.94368 -118.41236 100 ft 13 kts 173°
2026-04-24 20:36 33.94280 -118.41223 102 ft 13 kts 173°
2026-04-24 20:37 33.94218 -118.41213 101 ft 9 kts 172°
2026-04-24 20:37 33.94158 -118.41204 101 ft 10 kts 172°
2026-04-24 20:37 33.94103 -118.41195 102 ft 5 kts 174°
2026-04-24 20:37 33.94063 -118.41190 101 ft 5 kts 174°
2026-04-24 20:38 33.94026 -118.41184 101 ft 3 kts 150°
2026-04-24 20:38 33.94013 -118.41167 102 ft 0 kts 115°
2026-04-24 20:38 33.94011 -118.41160 101 ft 1 kts 89°
2026-04-24 20:39 33.94014 -118.41138 104 ft 4 kts 86°
2026-04-24 20:39 33.94018 -118.41100 103 ft 2 kts 82°
2026-04-24 20:39 33.94020 -118.41083 100 ft 1 kts 82°
2026-04-24 20:39 33.94020 -118.41078 100 ft 0 kts 83°